Weather History for KMZH - December, 2013

Change the Weather History Date:

Saturday, December 21, 2013

  Actual Average Record
Temperature  
Mean Temperature 9 °F -  
Max Temperature 17 °F 21 °F 45 °F (1967)
Min Temperature 1 °F 0 °F -33 °F (1989)
Degree Days  
Heating Degree Days 56    
Moisture  
Dew Point 9 °F    
Average Humidity 83    
Maximum Humidity 92    
Minimum Humidity 73    
Precipitation  
Precipitation 0.00 in - - ()
Sea Level Pressure  
Sea Level Pressure 29.91 in    
Wind  
Wind Speed 2 mph (North)    
Max Wind Speed 7 mph    
Max Gust Speed -    
Visibility 9 miles    
Events Snow    
Averages and records for this station are not official NWS values.
T = Trace of Precipitation, MM = Missing Value Source: NWS Daily Summary

Daily Weather History Graph

Daily Weather History Graph

Search for Another Location

Airport or City:

Trip Planner

Search our weather history database for the weather conditions in past years. The results will help you decide how hot, cold, wet, or windy it might be!

Date:

Astronomy

Dec. 21, 2013 Rise Set
Actual Time 7:51 AM CST 4:27 PM CST
Civil Twilight 7:16 AM CST 5:02 PM CST
Nautical Twilight 6:38 AM CST 5:40 PM CST
Astronomical Twilight 6:01 AM CST 6:17 PM CST
Moon 8:57 PM CST (12/21) 10:06 AM CST (12/21)
Length of Visible Light 9h 45m
Length of Day
8h 35m
Waning Gibbous, 84% of the Moon is Illuminated
Dec 21
Waning Gibbous
Dec 25
Last Quarter
Jan 1
New
Jan 7
First Quarter
Jan 15
Full

Hourly Weather History & Observations

Time (CST) Temp. Windchill Dew Point Humidity Pressure Visibility Wind Dir Wind Speed Gust Speed Precip Events Conditions
12:07 AM 1.4 °F - -4.0 °F 78% 29.82 in 10.0 mi Calm Calm - N/A   Overcast
12:27 AM 1.4 °F - -4.0 °F 78% 29.82 in 10.0 mi Calm Calm - N/A   Overcast
12:47 AM 1.4 °F - -2.2 °F 85% 29.81 in 10.0 mi Calm Calm - N/A   Overcast
1:07 AM 3.2 °F - 1.4 °F 92% 29.81 in 10.0 mi Calm Calm - N/A   Overcast
1:27 AM 5.0 °F - 1.4 °F 85% 29.81 in 10.0 mi Calm Calm - N/A   Overcast
1:48 AM 5.0 °F - 1.4 °F 85% 29.81 in 10.0 mi Calm Calm - N/A   Overcast
2:07 AM 5.0 °F - 1.4 °F 85% 29.82 in 10.0 mi Calm Calm - N/A   Overcast
2:28 AM 5.0 °F -5.6 °F 1.4 °F 85% 29.83 in 10.0 mi South 5.8 mph - N/A   Overcast
2:47 AM 6.8 °F - 3.2 °F 85% 29.84 in 10.0 mi Calm Calm - N/A   Overcast
3:08 AM 8.6 °F - 3.2 °F 79% 29.85 in 10.0 mi Calm Calm - N/A   Overcast
3:27 AM 8.6 °F - 5.0 °F 85% 29.85 in 7.0 mi Calm Calm - N/A Snow Light Snow
3:47 AM 8.6 °F - 5.0 °F 85% 29.85 in 7.0 mi Calm Calm - N/A   Overcast
4:08 AM 8.6 °F - 5.0 °F 85% 29.85 in 7.0 mi Calm Calm - N/A Snow Light Snow
4:28 AM 10.4 °F - 8.6 °F 92% 29.84 in 7.0 mi Calm Calm - N/A Snow Light Snow
4:47 AM 12.2 °F - 10.4 °F 92% 29.84 in 7.0 mi Calm Calm - N/A Snow Light Snow
5:07 AM 12.2 °F - 10.4 °F 92% 29.84 in 7.0 mi Calm Calm - N/A Snow Light Snow
5:27 AM 12.2 °F - 10.4 °F 92% 29.84 in 10.0 mi Calm Calm - N/A Snow Light Snow
5:47 AM 12.2 °F - 8.6 °F 85% 29.84 in 10.0 mi Calm Calm - N/A Snow Light Snow
6:07 AM 12.2 °F - 10.4 °F 92% 29.85 in 10.0 mi Calm Calm - N/A   Overcast
6:27 AM 12.2 °F 6.1 °F 10.4 °F 92% 29.85 in 7.0 mi North 3.5 mph - N/A Snow Light Snow
6:47 AM 12.2 °F 6.1 °F 10.4 °F 92% 29.84 in 10.0 mi North 3.5 mph - N/A   Overcast
7:07 AM 12.2 °F - 10.4 °F 92% 29.85 in 10.0 mi Calm Calm - N/A   Overcast
7:27 AM 12.2 °F 6.1 °F 10.4 °F 92% 29.86 in 10.0 mi NNE 3.5 mph - N/A   Overcast
7:48 AM 12.2 °F - 10.4 °F 92% 29.87 in 10.0 mi Calm Calm - N/A   Overcast
8:07 AM 12.2 °F - 10.4 °F 92% 29.88 in 10.0 mi Calm Calm - N/A   Overcast
8:27 AM 12.2 °F - 10.4 °F 92% 29.89 in 7.0 mi Calm Calm - N/A Snow Light Snow
8:48 AM 12.2 °F - 10.4 °F 92% 29.92 in 4.0 mi Calm Calm - N/A Snow Light Snow
9:07 AM 14.0 °F - 10.4 °F 86% 29.92 in 4.0 mi Calm Calm - N/A Snow Light Snow
9:28 AM 14.0 °F 8.2 °F 10.4 °F 86% 29.90 in 3.0 mi NNE 3.5 mph - N/A Snow Light Snow
9:47 AM 14.0 °F 8.2 °F 10.4 °F 86% 29.92 in 10.0 mi NNE 3.5 mph - N/A Snow Light Snow
10:07 AM 14.0 °F - 10.4 °F 86% 29.93 in 10.0 mi Calm Calm - N/A   Overcast
10:28 AM 14.0 °F - 10.4 °F 86% 29.94 in 10.0 mi Calm Calm - N/A Snow Light Snow
10:48 AM 14.0 °F - 10.4 °F 86% 29.92 in 10.0 mi Calm Calm - N/A   Overcast
11:07 AM 15.8 °F - 10.4 °F 79% 29.92 in 7.0 mi Calm Calm - N/A Snow Light Snow
11:27 AM 15.8 °F - 12.2 °F 86% 29.93 in 10.0 mi Calm Calm - N/A Snow Light Snow
11:47 AM 17.6 °F - 12.2 °F 79% 29.91 in 7.0 mi Calm Calm - N/A Snow Light Snow
12:08 PM 17.6 °F - 12.2 °F 79% 29.93 in 7.0 mi Calm Calm - N/A Snow Light Snow
12:27 PM 17.6 °F - 12.2 °F 79% 29.92 in 10.0 mi Calm Calm - N/A Snow Light Snow
12:47 PM 17.6 °F 10.7 °F 12.2 °F 79% 29.90 in 10.0 mi North 4.6 mph - N/A Snow Light Snow
1:07 PM 17.6 °F 10.7 °F 12.2 °F 79% 29.93 in 10.0 mi NNW 4.6 mph - N/A Snow Light Snow
1:27 PM 17.6 °F 9.3 °F 12.2 °F 79% 29.95 in 10.0 mi NNW 5.8 mph - N/A Snow Light Snow
1:47 PM 17.6 °F 9.3 °F 12.2 °F 79% 29.95 in 10.0 mi NNW 5.8 mph - N/A Snow Light Snow
2:07 PM 17.6 °F 8.2 °F 12.2 °F 79% 29.94 in 10.0 mi North 6.9 mph - N/A Snow Light Snow
2:27 PM 17.6 °F 9.3 °F 12.2 °F 79% 29.94 in 10.0 mi North 5.8 mph - N/A   Overcast
2:47 PM 17.6 °F 9.3 °F 10.4 °F 73% 29.95 in 10.0 mi NW 5.8 mph - N/A   Overcast
3:08 PM 17.6 °F 10.7 °F 10.4 °F 73% 29.96 in 10.0 mi NNW 4.6 mph - N/A   Overcast
3:27 PM 17.6 °F 9.3 °F 10.4 °F 73% 29.96 in 10.0 mi NNW 5.8 mph - N/A   Overcast
3:47 PM 15.8 °F 6.1 °F 10.4 °F 79% 29.97 in 10.0 mi NNE 6.9 mph - N/A   Overcast
4:07 PM 15.8 °F 8.6 °F 10.4 °F 79% 29.98 in 10.0 mi North 4.6 mph - N/A   Overcast
4:28 PM 15.8 °F 8.6 °F 10.4 °F 79% 29.98 in 10.0 mi NNW 4.6 mph - N/A   Overcast
4:48 PM 15.8 °F 10.2 °F 10.4 °F 79% 29.98 in 10.0 mi North 3.5 mph - N/A   Overcast
5:07 PM 15.8 °F 10.2 °F 10.4 °F 79% 29.98 in 10.0 mi NNW 3.5 mph - N/A Snow Light Snow
5:27 PM 15.8 °F 10.2 °F 10.4 °F 79% 29.99 in 10.0 mi NNW 3.5 mph - N/A   Overcast
5:47 PM 15.8 °F 10.2 °F 10.4 °F 79% 29.98 in 10.0 mi NNW 3.5 mph - N/A   Overcast
6:07 PM 14.0 °F - 10.4 °F 86% 29.96 in 10.0 mi Calm Calm - N/A   Overcast
6:27 PM 14.0 °F - 10.4 °F 86% 29.96 in 10.0 mi Calm Calm - N/A   Overcast
6:47 PM 14.0 °F - 8.6 °F 79% 29.97 in 10.0 mi Calm Calm - N/A   Overcast
7:07 PM 14.0 °F 8.2 °F 8.6 °F 79% 29.97 in 10.0 mi North 3.5 mph - N/A   Mostly Cloudy
7:27 PM 14.0 °F - 10.4 °F 86% 29.98 in 10.0 mi Calm Calm - N/A   Overcast
7:47 PM 14.0 °F - 8.6 °F 79% 29.98 in 10.0 mi Calm Calm - N/A   Overcast
8:07 PM 14.0 °F 8.2 °F 8.6 °F 79% 29.98 in 10.0 mi NNE 3.5 mph - N/A   Overcast
8:27 PM 14.0 °F 8.2 °F 10.4 °F 86% 29.99 in 10.0 mi NNE 3.5 mph - N/A   Overcast
8:47 PM 15.8 °F 10.2 °F 10.4 °F 79% 29.98 in 10.0 mi North 3.5 mph - N/A   Overcast
9:07 PM 17.6 °F 10.7 °F 10.4 °F 73% 29.97 in 10.0 mi North 4.6 mph - N/A   Overcast
9:27 PM 17.6 °F 9.3 °F 12.2 °F 79% 29.95 in 10.0 mi North 5.8 mph - N/A   Overcast
9:48 PM 17.6 °F 9.3 °F 12.2 °F 79% 29.95 in 10.0 mi North 5.8 mph - N/A   Overcast
10:07 PM 17.6 °F 10.7 °F 12.2 °F 79% 29.94 in 10.0 mi NNE 4.6 mph - N/A   Overcast
10:28 PM 17.6 °F 9.3 °F 12.2 °F 79% 29.94 in 10.0 mi NNE 5.8 mph - N/A   Overcast
10:47 PM 17.6 °F 10.7 °F 12.2 °F 79% 29.94 in 10.0 mi North 4.6 mph - N/A   Overcast
11:08 PM 17.6 °F 8.2 °F 12.2 °F 79% 29.94 in 7.0 mi North 6.9 mph - N/A Snow Light Snow
11:27 PM 17.6 °F 9.3 °F 14.0 °F 86% 29.94 in 3.0 mi North 5.8 mph - N/A Snow Light Snow
11:47 PM 17.6 °F 9.3 °F 14.0 °F 86% 29.94 in 3.0 mi North 5.8 mph - N/A Snow Light Snow